Location: Pensacola
(30.4142°N, 87.2155°W)
Time: 23:50:34
(UTC-06:00)

Tiangong 2 - Visible Passes

Search period start: 18 February 2018 00:00
Search period end: 28 February 2018 00:00
Orbit: 384 x 388 km, 42.8° (Epoch: 18 February)

Date Brightness Start Highest point End Pass type
(mag) Time Alt. Az. Time Alt. Az. Time Alt. Az.
18 Feb 3.9 19:21:01 10° NNW 19:21:24 12° NNW 19:21:24 12° NNW visible
19 Feb 3.5 18:22:36 10° N 18:23:49 12° NNE 18:25:03 10° NE visible
20 Feb 2.7 18:59:28 10° NNW 19:01:41 23° N 19:01:41 23° N visible
21 Feb 3.6 19:36:54 10° WNW 19:38:05 21° NW 19:38:05 21° NW visible
22 Feb 1.6 18:38:02 10° NW 18:41:06 42° NNE 18:42:19 27° E visible
23 Feb 2.2 19:15:51 10° WNW 19:18:50 38° SW 19:18:58 38° SSW visible
24 Feb 1.1 18:16:44 10° WNW 18:19:54 89° SW 18:23:04 10° SE visible
25 Feb 3.8 18:55:15 10° W 18:57:28 18° SW 18:59:41 10° S visible
